Location: Newark
(50.8964°N, 1.4048°W)
Time: 14:37:12
(UTC+00:00)

N. Korean satellite - Pass Details

Date: 27 January 2020
Orbit: 456 x 505 km, 97.2° (Epoch: 29 February)

Event Time Altitude Azimuth Distance (km) Brightness Sun altitude
Rises 04:50:54 0° 30° (NNE) 2,545 10.7 -28.0°
Reaches altitude 10° 04:53:49 10° 57° (ENE) 1,671 10.0 -27.6°
Maximum altitude 04:55:45 14° 90° (E) 1,445 9.8 -27.3°
Drops below altitude 10° 04:57:43 10° 122° (ESE) 1,678 9.9 -26.9°
Sets 05:00:38 0° 149° (SSE) 2,564 10.6 -26.5°
